[[{"header":{"parameterUnit":"m.s-1","parameterCategory":2,"la1":30.2991,"la2":30.254,"lo1":-89.0895,"lo2":-89.0444,"dy":0.0017,"dx":0.0017,"nx":28,"ny":28,"refTime":"2024-11-25T03:00:00:Z","depth":"0","parameterNumber":2,"parameterNumberName":"U-component_of_CURRENTS"},"data":[0,0,0,0,0,0,0,0,0,0,0,0,0,0,0,0,0,0,0,0,0,0,0,0,0,0,0,0,0,0,0,0,0,0,0,0,0,0,0,0,0,0,0,0,0,0,0,0,0,0,0,0,0,0,0,0,0,0,0.3306,0.3307,0,0.3331,0.3331,0.3331,0.3295,0.3295,0.3294,0.3293,0.331,0.3312,0.3313,0,0,0,0,0,0,0,0,0,0,0,0,0,0.3239,0.324,0.3306,0.3307,0.3308,0.3331,0.3331,0.3331,0.3295,0.3295,0.3294,0.3293,0.331,0.3311,0.3313,0,0,0,0,0,0,0,0,0,0,0,0,0,0.3261,0.324,0.3306,0.3298,0.3297,0.3331,0.3331,0.333,0.3296,0.3294,0.3293,0.3292,0.331,0.3311,0.3313,0.3345,0,0,0.3318,0.3319,0,0,0,0,0,0,0,0,0.326,0.3263,0.3298,0.3298,0.3298,0.3314,0.3314,0.3337,0.3296,0.329,0.3293,0.3292,0.3316,0.3317,0.3316,0.3346,0.3347,0.3318,0.3319,0.332,0.3321,0,0,0,0,0,0,0,0.3258,0.3262,0.331,0.3299,0.3299,0.3296,0.3298,0.3318,0.3304,0.3291,0.329,0.3302,0.3315,0.3314,0.3316,0.3347,0.3318,0.332,0.3321,0.3321,0.3482,0.3485,0,0,0,0,0,0,0.3268,0.3261,0.331,0.3312,0.3283,0.3299,0.33,0.3305,0.3304,0.3304,0.3303,0.33,0.3312,0.3314,0.3316,0.3371,0.332,0.3322,0.3323,0.3478,0.3482,0.3486,0,0,0,0,0,0,0.3266,0.3272,0.3309,0.3291,0.3297,0.3302,0.3308,0.3307,0.3308,0.3314,0.3313,0.3307,0.3311,0.3314,0.3357,0.3371,0.3322,0.3324,0.3475,0.348,0.3484,0.3471,0,0,0,0,0,0,0.3264,0.3271,0.3275,0.3292,0.3298,0.3329,0.3309,0.3308,0.332,0.3317,0.3318,0.3318,0.331,0.3355,0.3359,0.3373,0.3325,0.347,0.3477,0.3483,0.3467,0.3475,0.3481,0,0,0,0,0,0.3261,0.3279,0.3275,0.3282,0.3305,0.333,0.3332,0.3328,0.3322,0.3325,0.3343,0.3318,0.3397,0.3359,0.3363,0.3377,0.3468,0.3475,0.3482,0.3464,0.3473,0.3481,0,0,0,0,0,0,0.326,0.3279,0.3274,0.3298,0.3312,0.3326,0.3334,0.3337,0.3352,0.3352,0.3351,0.3353,0.3401,0.341,0.3368,0.3452,0.3432,0.344,0.3417,0.3426,0.3433,0.3391,0.3327,0,0,0,0,0,0.3263,0.3274,0.3293,0.3312,0.3317,0.3326,0.3336,0.3339,0.3359,0.3362,0.3365,0.3393,0.3437,0.3445,0.3479,0.3515,0.3529,0.3537,0.3544,0.3549,0.3526,0.3581,0.3589,0.351,0.351,0.351,0,0,0.327,0.3282,0.3289,0.3311,0.3317,0.3323,0.3327,0.3348,0.3356,0.3366,0.3376,0.3416,0.3459,0.3502,0.3524,0.3503,0.359,0.3558,0.3561,0.3535,0.3589,0.3596,0.3602,0.3515,0.3514,0.3513,0,0,0.3281,0.3296,0.3297,0.3307,0.3326,0.3335,0.3344,0.3359,0.3364,0.3398,0.342,0.3466,0.3511,0.3538,0.3564,0.3636,0.3632,0.3664,0.3643,0.3699,0.3704,0.3708,0.3759,0.3768,0.3655,0.3655,0.3655,0,0.329,0.3282,0.3305,0.3306,0.3309,0.3338,0.3335,0.3357,0.3386,0.3399,0.3401,0.3494,0.3523,0.3585,0.361,0.3642,0.3676,0.3595,0.3701,0.3706,0.371,0.3761,0.3771,0.3656,0.3655,0.3655,0.3655,0,0.3292,0.328,0.3286,0.3284,0.3301,0.3308,0.3339,0.3361,0.3378,0.3396,0.3459,0.351,0.3556,0.3594,0.3616,0.3679,0.3696,0.3706,0.3659,0.3716,0.3769,0.3779,0.3656,0.3656,0.3656,0.3656,0,0,0.3309,0.3287,0.3284,0.3252,0.3283,0.3288,0.3327,0.3354,0.3369,0.3414,0.3433,0.3523,0.3547,0.358,0.3627,0.3669,0.3744,0.3694,0.3697,0.3708,0.3869,0.3748,0.3747,0.3771,0.3772,0.3773,0.3898,0,0.3288,0.325,0.3268,0.3235,0.3201,0.3251,0.328,0.3322,0.3361,0.3393,0.3464,0.3508,0.3546,0.3574,0.3626,0.3722,0.3768,0.3708,0.3843,0.3847,0.3701,0.3754,0.3573,0.3656,0.3908,0.391,0.3911,0,0.3265,0.323,0.319,0.3158,0.3158,0.3167,0.3202,0.3235,0.3316,0.3354,0.3415,0.3469,0.3556,0.3571,0.3732,0.3697,0.3774,0.3837,0.3844,0.3729,0.3742,0.3642,0.3666,0.3535,0.3927,0.3926,0.3925,0,0.321,0.3168,0.3122,0.3115,0.3114,0.3122,0.3137,0.3212,0.3243,0.3322,0.3353,0.3462,0.3514,0.3633,0.3755,0.3761,0.3912,0.3943,0.3906,0.39,0.3766,0.3743,0.3637,0.4037,0.4037,0.4037,0.4036,0,0.3164,0.3107,0.3081,0.3055,0.301,0.3048,0.305,0.3097,0.3175,0.3209,0.3315,0.336,0.353,0.3632,0.3752,0.3845,0.3918,0.3895,0.3916,0.3761,0.3738,0.3633,0.36,0.4041,0.404,0.404,0.4039,0,0.3092,0.3078,0.3011,0.2994,0.2977,0.295,0.2972,0.299,0.3078,0.3127,0.3154,0.33,0.3434,0.3583,0.3774,0.3818,0.3818,0.3945,0.3739,0.373,0.3543,0.3518,0.3376,0.3315,0.3935,0.3932,0.393,0,0.3015,0.2989,0.2958,0.2918,0.29,0.2864,0.2858,0.2928,0.2959,0.3087,0.3108,0.3238,0.3322,0.353,0.3642,0.38,0.3724,0.3683,0.3642,0.3482,0.3474,0.339,0.3345,0.3498,0.3492,0.3488,0.3484,0,0.2892,0.2927,0.291,0.2826,0.2788,0.276,0.2752,0.2767,0.2875,0.2926,0.3015,0.3086,0.3257,0.3315,0.3463,0.3539,0.3463,0.3593,0.3492,0.3151,0.2991,0.2958,0.3477,0.3445,0.3449,0.3452,0.3454,0.3455,0.2808,0.2796,0.28,0.2719,0.2679,0.2655,0.2625,0.2655,0.2689,0.2737,0.2865,0.2885,0.2988,0.3176,0.3232,0.3126,0.3229,0.3049,0.3052,0.2996,0.284,0.3245,0.3183,0.3186,0.3188,0.3189,0.3191,0,0.2694,0.2708,0.2658,0.2597,0.2541,0.255,0.2549,0.2519,0.2519,0.255,0.2596,0.2582,0.2609,0.268,0.2676,0.26,0.2568,0.2518,0.2368,0.2376,0.2788,0.2665,0.2405,0.2405,0.2405,0.2405,0.2406,0.2406,0.2632,0.259,0.2592,0.2461,0.2425,0.2344,0.2341,0.2298,0.2283,0.2177,0.2104,0.2138,0.2227,0.2229,0.2138,0.211,0.2017,0.1907,0.199,0.2266,0.2316,0.2363,0.2236,0.189,0.189,0.1478,0.1474,0.1472]},{"header":{"parameterUnit":"m.s-1","parameterCategory":2,"la1":30.2991,"la2":30.254,"lo1":-89.0895,"lo2":-89.0444,"dy":0.0017,"dx":0.0017,"nx":28,"ny":28,"refTime":"2024-11-25T03:00:00:Z","depth":"0","parameterNumber":3,"parameterNumberName":"V-component_of_CURRENTS"},"data":[0,0,0,0,0,0,0,0,0,0,0,0,0,0,0,0,0,0,0,0,0,0,0,0,0,0,0,0,0,0,0,0,0,0,0,0,0,0,0,0,0,0,0,0,0,0,0,0,0,0,0,0,0,0,0,0,0,0,-0.0431,-0.0431,0,-0.0358,-0.0357,-0.0356,-0.0345,-0.0346,-0.0347,-0.0347,-0.0316,-0.0314,-0.0313,0,0,0,0,0,0,0,0,0,0,0,0,0,-0.0504,-0.0503,-0.0432,-0.0431,-0.043,-0.0358,-0.0357,-0.0356,-0.0345,-0.0346,-0.0347,-0.0348,-0.0316,-0.0314,-0.0312,0,0,0,0,0,0,0,0,0,0,0,0,0,-0.0456,-0.0503,-0.0432,-0.0416,-0.0414,-0.0359,-0.0357,-0.0356,-0.0345,-0.0346,-0.0347,-0.0348,-0.0317,-0.0314,-0.0312,-0.0277,0,0,-0.0305,-0.0304,0,0,0,0,0,0,0,0,-0.0459,-0.0453,-0.0419,-0.0417,-0.0415,-0.0363,-0.0371,-0.0332,-0.0345,-0.0371,-0.0347,-0.0349,-0.0335,-0.0331,-0.0313,-0.0275,-0.0274,-0.0305,-0.0304,-0.0303,-0.0302,0,0,0,0,0,0,0,-0.0462,-0.0456,-0.0402,-0.0418,-0.0415,-0.0393,-0.0388,-0.0363,-0.0348,-0.0368,-0.0368,-0.036,-0.0334,-0.0316,-0.0313,-0.0273,-0.0305,-0.0303,-0.0302,-0.0301,-0.0192,-0.0191,0,0,0,0,0,0,-0.0474,-0.0459,-0.0404,-0.04,-0.044,-0.0391,-0.0385,-0.0378,-0.0347,-0.0343,-0.0359,-0.036,-0.0319,-0.0315,-0.0312,-0.0258,-0.0303,-0.0301,-0.0299,-0.0194,-0.0192,-0.019,0,0,0,0,0,0,-0.0476,-0.047,-0.0407,-0.0428,-0.0419,-0.0389,-0.0381,-0.0376,-0.0359,-0.034,-0.0337,-0.0348,-0.032,-0.0315,-0.0272,-0.0258,-0.03,-0.0297,-0.0195,-0.0193,-0.0191,-0.0158,0,0,0,0,0,0,-0.0478,-0.0471,-0.0471,-0.0429,-0.0418,-0.0375,-0.0379,-0.0374,-0.0353,-0.0353,-0.0329,-0.0327,-0.032,-0.0275,-0.0269,-0.0255,-0.0296,-0.0197,-0.0194,-0.0192,-0.0161,-0.0155,-0.0149,0,0,0,0,0,-0.0481,-0.0479,-0.0471,-0.0465,-0.0419,-0.0374,-0.0366,-0.0348,-0.0352,-0.0339,-0.0311,-0.0328,-0.0254,-0.0271,-0.0265,-0.025,-0.0199,-0.0195,-0.0192,-0.0163,-0.0156,-0.015,0,0,0,0,0,0,-0.051,-0.0476,-0.0467,-0.0455,-0.0417,-0.0373,-0.0364,-0.0345,-0.0312,-0.0316,-0.0299,-0.0294,-0.0254,-0.0249,-0.0269,-0.0209,-0.0233,-0.0228,-0.0213,-0.0206,-0.02,-0.0205,-0.0294,0,0,0,0,0,-0.0516,-0.0506,-0.0464,-0.0452,-0.0439,-0.0399,-0.0381,-0.0362,-0.0327,-0.0314,-0.0289,-0.0264,-0.0232,-0.0218,-0.0193,-0.0154,-0.0151,-0.0142,-0.0136,-0.0132,-0.013,-0.01,-0.0092,-0.0179,-0.0179,-0.0179,0,0,-0.0521,-0.0503,-0.0496,-0.0457,-0.0432,-0.0391,-0.0391,-0.0361,-0.0322,-0.0315,-0.0262,-0.0242,-0.0216,-0.0172,-0.0155,-0.0168,-0.0104,-0.0127,-0.0124,-0.0124,-0.0096,-0.0088,-0.008,-0.0177,-0.0177,-0.0177,0,0,-0.0518,-0.0513,-0.0498,-0.0464,-0.0424,-0.0394,-0.0385,-0.0333,-0.0313,-0.0253,-0.024,-0.0205,-0.0155,-0.013,-0.0112,-0.0058,-0.0074,-0.0057,-0.0032,-0.0003,0.0004,0.001,0.0025,0.0033,-0.0056,-0.0056,-0.0056,0,-0.0525,-0.0492,-0.0484,-0.0451,-0.0416,-0.0394,-0.0349,-0.032,-0.0255,-0.0231,-0.0237,-0.0147,-0.0133,-0.0072,-0.0055,-0.0046,-0.0038,-0.0063,0.0003,0.0009,0.0015,0.0029,0.0037,-0.0054,-0.0054,-0.0054,-0.0054,0,-0.0498,-0.0465,-0.0453,-0.0401,-0.0368,-0.0327,-0.0283,-0.0252,-0.0226,-0.0189,-0.0127,-0.0094,-0.0045,-0.0036,-0.0029,0.0023,0.0013,0.0006,-0.0019,0.0025,0.0038,0.0045,-0.0051,-0.0052,-0.0052,-0.0053,0,0,-0.0518,-0.0446,-0.0439,-0.0396,-0.0333,-0.0298,-0.0249,-0.0185,-0.0149,-0.0103,-0.0043,0.0005,0.0012,0.0032,0.0045,0.0067,0.0112,0.0052,0.0053,0.0059,0.0169,0.0158,0.0165,0.0114,0.0116,0.0117,0.0161,0,-0.0488,-0.0421,-0.0388,-0.0305,-0.0258,-0.022,-0.0171,-0.012,-0.0081,-0.0023,0.0004,0.0061,0.0041,0.0067,0.0088,0.0118,0.0132,0.01,0.0132,0.0133,0.0111,0.0174,0.019,0.023,0.0168,0.0169,0.017,0,-0.0456,-0.0416,-0.034,-0.0244,-0.0223,-0.0173,-0.0097,-0.0047,0.0017,0.0043,0.0089,0.0114,0.017,0.0137,0.0195,0.0176,0.0169,0.0177,0.0179,0.0162,0.0136,0.0177,0.0246,0.0181,0.0181,0.018,0.0179,0,-0.0461,-0.0367,-0.0309,-0.0274,-0.0181,-0.0143,-0.0092,-0.0029,0.0023,0.0086,0.0133,0.0183,0.0235,0.0238,0.0253,0.0228,0.0308,0.0275,0.0255,0.0253,0.027,0.0267,0.0273,0.0297,0.0297,0.0297,0.0297,0,-0.0425,-0.0368,-0.0307,-0.0271,-0.019,-0.0138,-0.0052,-0.0008,0.0066,0.0149,0.0167,0.0248,0.0263,0.0311,0.0288,0.031,0.0335,0.0274,0.0274,0.0282,0.028,0.0225,0.0173,0.0298,0.0298,0.0298,0.0298,0,-0.0411,-0.0374,-0.0303,-0.0225,-0.0185,-0.0136,-0.0011,0.005,0.01,0.021,0.0238,0.0322,0.0389,0.0389,0.042,0.0375,0.0356,0.0365,0.0368,0.0366,0.0267,0.0217,0.024,0.0242,0.0353,0.0353,0.0353,0,-0.0373,-0.0347,-0.0281,-0.0232,-0.0184,-0.0095,-0.0018,0.0059,0.0135,0.0271,0.0337,0.0424,0.0522,0.0554,0.0493,0.0457,0.0391,0.0412,0.036,0.0279,0.0223,0.0202,0.0201,0.0397,0.0397,0.0398,0.0398,0,-0.0306,-0.0318,-0.0278,-0.0195,-0.0114,-0.0015,0.01,0.0165,0.027,0.0373,0.0519,0.0603,0.0634,0.0648,0.0575,0.0521,0.0379,0.0417,0.0348,0.0274,0.024,0.0236,0.0334,0.0401,0.0401,0.0401,0.0401,0.0401,-0.0261,-0.0239,-0.0208,-0.0122,-0.0039,0.0074,0.0177,0.03,0.0442,0.0624,0.0663,0.082,0.0765,0.0689,0.0595,0.0403,0.0406,0.0343,0.0295,0.0287,0.0273,0.0366,0.0418,0.0418,0.0418,0.0417,0.0417,0,-0.0188,-0.0166,-0.0103,-0.0011,0.0081,0.0117,0.0276,0.039,0.0583,0.0736,0.088,0.0947,0.0863,0.0711,0.0454,0.0313,0.0274,0.0235,0.0209,0.0219,0.0322,0.0305,0.0317,0.0317,0.0317,0.0317,0.0317,0.0317,-0.0134,-0.0077,-0.0061,0.0095,0.0164,0.0319,0.0415,0.0573,0.0714,0.0929,0.1043,0.1119,0.1031,0.055,0.0244,0.0171,0.0097,0.0082,0.005,0.0091,0.0097,0.0103,0.0076,0.004,0.0039,-0.0005,-0.0006,-0.0007]}],[{"header":{"parameterUnit":"m.s-1","parameterCategory":2,"la1":30.2991,"la2":30.254,"lo1":-89.0895,"lo2":-89.0444,"dy":0.0017,"dx":0.0017,"nx":28,"ny":28,"refTime":"2024-11-25T03:00:00:Z","depth":"2","parameterNumber":2,"parameterNumberName":"U-component_of_CURRENTS"},"data":[0,0,0,0,0,0,0,0,0,0,0,0,0,0,0,0,0,0,0,0,0,0,0,0,0,0,0,0,0,0,0,0,0,0,0,0,0,0,0,0,0,0,0,0,0,0,0,0,0,0,0,0,0,0,0,0,0,0,0.0397,0.0397,0,0.039,0.039,0.0391,0.0444,0.0445,0.0446,0.0447,0.0641,0.0645,0.065,0,0,0,0,0,0,0,0,0,0,0,0,0,0.0487,0.0485,0.0397,0.0397,0.0396,0.039,0.0391,0.0391,0.0444,0.0445,0.0446,0.0448,0.064,0.0645,0.065,0,0,0,0,0,0,0,0,0,0,0,0,0,0.0464,0.0484,0.0397,0.0419,0.042,0.039,0.0391,0.0391,0.0443,0.0445,0.0447,0.0448,0.0638,0.0644,0.0651,0.0656,0,0,0.067,0.0672,0,0,0,0,0,0,0,0,0.0466,0.0462,0.0416,0.0417,0.0419,0.0416,0.0493,0.0488,0.0443,0.0439,0.0447,0.0449,0.0581,0.0592,0.059,0.0665,0.0673,0.067,0.0674,0.0677,0.0678,0,0,0,0,0,0,0,0.0467,0.0462,0.0399,0.0415,0.0417,0.0439,0.0438,0.0492,0.0508,0.044,0.0442,0.0434,0.0584,0.0583,0.0595,0.0676,0.067,0.0675,0.0679,0.0682,0.0945,0.0948,0,0,0,0,0,0,0.0456,0.0463,0.0399,0.0398,0.0442,0.0436,0.0435,0.0419,0.0503,0.0514,0.0433,0.0437,0.0572,0.0588,0.0603,0.077,0.0677,0.0682,0.0686,0.0942,0.0946,0.0949,0,0,0,0,0,0,0.0457,0.0449,0.0399,0.0428,0.0423,0.0432,0.0414,0.0418,0.0463,0.0495,0.0512,0.0479,0.0574,0.0594,0.0694,0.0773,0.0685,0.0691,0.0938,0.0943,0.0947,0.1007,0,0,0,0,0,0,0.046,0.045,0.0458,0.0427,0.042,0.042,0.0412,0.0416,0.045,0.0457,0.0539,0.0555,0.0577,0.0685,0.07,0.078,0.0696,0.0934,0.094,0.0946,0.1001,0.1013,0.1024,0,0,0,0,0,0.0463,0.0459,0.0458,0.0451,0.0422,0.0421,0.0422,0.0436,0.0451,0.0482,0.0538,0.0555,0.0736,0.0692,0.071,0.0793,0.0931,0.0938,0.0945,0.0996,0.1011,0.1023,0,0,0,0,0,0,0.0512,0.0462,0.0461,0.0446,0.0452,0.0429,0.0449,0.046,0.0522,0.0544,0.0584,0.0605,0.0731,0.075,0.07,0.0889,0.0842,0.0854,0.0875,0.0889,0.0901,0.0901,0.0701,0,0,0,0,0,0.0519,0.0506,0.0475,0.0476,0.0473,0.0471,0.048,0.0491,0.0522,0.0551,0.0617,0.069,0.0765,0.0816,0.0884,0.0974,0.1008,0.1045,0.1057,0.1066,0.1081,0.1187,0.1209,0.0973,0.0973,0.0973,0,0,0.0544,0.0512,0.0511,0.0487,0.0487,0.052,0.0484,0.0506,0.0564,0.0566,0.0693,0.0739,0.08,0.0908,0.0967,0.0939,0.1154,0.1076,0.1083,0.1092,0.1197,0.1219,0.124,0.0978,0.0977,0.0977,0,0,0.0587,0.0554,0.0567,0.0575,0.0574,0.0572,0.0592,0.0607,0.0644,0.0742,0.0769,0.0854,0.0976,0.1025,0.1064,0.1181,0.1214,0.122,0.1277,0.138,0.14,0.1418,0.1494,0.1518,0.1221,0.1221,0.1222,0,0.0636,0.0643,0.058,0.0607,0.0637,0.061,0.067,0.069,0.0755,0.0789,0.0808,0.0986,0.1034,0.115,0.1191,0.121,0.1263,0.1212,0.1394,0.1412,0.1429,0.1503,0.1529,0.1225,0.1225,0.1224,0.1224,0,0.0689,0.0725,0.0736,0.0764,0.0775,0.0828,0.0828,0.0868,0.0913,0.0941,0.1074,0.1134,0.1233,0.1271,0.1269,0.1417,0.1414,0.1396,0.135,0.1456,0.1527,0.1553,0.1231,0.1229,0.1228,0.1227,0,0,0.0774,0.078,0.0801,0.0823,0.0878,0.0866,0.0956,0.1007,0.1042,0.1141,0.1234,0.1356,0.1369,0.1414,0.1434,0.1517,0.1676,0.1512,0.1515,0.1572,0.1905,0.169,0.1697,0.1695,0.17,0.1704,0.1905,0,0.0881,0.0948,0.0931,0.1023,0.107,0.1055,0.1116,0.1142,0.1193,0.1267,0.1333,0.1436,0.1429,0.148,0.1569,0.1653,0.1748,0.1623,0.1807,0.1812,0.1596,0.1721,0.1579,0.1728,0.193,0.1934,0.1937,0,0.0993,0.1011,0.1131,0.1126,0.1135,0.1178,0.1219,0.1263,0.133,0.1371,0.1474,0.1521,0.1666,0.1639,0.186,0.1785,0.1862,0.1917,0.1926,0.1721,0.1645,0.1657,0.1766,0.198,0.1977,0.1974,0.1971,0,0.1096,0.1151,0.1244,0.1268,0.1272,0.1291,0.1279,0.1319,0.134,0.1452,0.1514,0.1657,0.1771,0.1893,0.2012,0.1959,0.2245,0.2178,0.2063,0.2049,0.1958,0.1924,0.2352,0.2352,0.2352,0.2351,0.2351,0,0.1227,0.1285,0.1286,0.1326,0.1357,0.1337,0.1365,0.1371,0.1428,0.1489,0.1576,0.169,0.1849,0.201,0.2082,0.2158,0.2316,0.2101,0.2097,0.197,0.1937,0.2169,0.2145,0.2359,0.2357,0.2356,0.2354,0,0.1308,0.1365,0.1431,0.1433,0.1422,0.1429,0.1369,0.1383,0.1446,0.1551,0.1607,0.1776,0.1988,0.2121,0.2341,0.2239,0.2331,0.2324,0.2139,0.2103,0.2044,0.2022,0.2188,0.2182,0.2178,0.2174,0.217,0,0.1346,0.1413,0.1465,0.1497,0.1497,0.1473,0.1462,0.1429,0.1458,0.1606,0.169,0.1911,0.2056,0.2247,0.2193,0.2257,0.2363,0.2056,0.1882,0.2054,0.2035,0.2019,0.2004,0.1826,0.182,0.1816,0.1812,0,0.1386,0.1449,0.1481,0.1549,0.1568,0.1512,0.1493,0.1499,0.1521,0.1625,0.1803,0.1926,0.2073,0.2044,0.2032,0.2024,0.2005,0.1942,0.2286,0.1818,0.1709,0.1689,0.1688,0.1769,0.1773,0.1776,0.1778,0.178,0.1441,0.1433,0.1523,0.1571,0.1597,0.1567,0.1523,0.1526,0.1561,0.1648,0.178,0.187,0.1854,0.174,0.173,0.1662,0.1735,0.1607,0.1627,0.165,0.15,0.1381,0.1354,0.1356,0.1357,0.1359,0.136,0,0.1468,0.1444,0.1504,0.1552,0.1571,0.1593,0.1563,0.1507,0.1554,0.1587,0.1673,0.1503,0.1463,0.1534,0.1331,0.1196,0.1245,0.1175,0.1265,0.1304,0.134,0.118,0.0947,0.0946,0.0945,0.0945,0,0,0.1463,0.1505,0.1503,0.1547,0.1574,0.1542,0.1539,0.1482,0.1449,0.1386,0.1363,0.1365,0.1419,0.1152,0.1087,0.1022,0.1174,0.0985,0.1309,0.1456,0.1492,0.1566,0.1356,0,0,0,0,0]},{"header":{"parameterUnit":"m.s-1","parameterCategory":2,"la1":30.2991,"la2":30.254,"lo1":-89.0895,"lo2":-89.0444,"dy":0.0017,"dx":0.0017,"nx":28,"ny":28,"refTime":"2024-11-25T03:00:00:Z","depth":"2","parameterNumber":3,"parameterNumberName":"V-component_of_CURRENTS"},"data":[0,0,0,0,0,0,0,0,0,0,0,0,0,0,0,0,0,0,0,0,0,0,0,0,0,0,0,0,0,0,0,0,0,0,0,0,0,0,0,0,0,0,0,0,0,0,0,0,0,0,0,0,0,0,0,0,0,0,0.015,0.015,0,0.0142,0.0142,0.0142,0.0051,0.0048,0.0046,0.0043,-0.0159,-0.0162,-0.0165,0,0,0,0,0,0,0,0,0,0,0,0,0,0.0092,0.0094,0.015,0.015,0.0149,0.0142,0.0142,0.0142,0.0051,0.0048,0.0045,0.0042,-0.0158,-0.0161,-0.0165,0,0,0,0,0,0,0,0,0,0,0,0,0,0.0106,0.0094,0.015,0.0101,0.0097,0.0142,0.0142,0.0142,0.0052,0.0048,0.0044,0.0041,-0.0157,-0.0161,-0.0165,-0.0118,0,0,-0.0179,-0.0181,0,0,0,0,0,0,0,0,0.0105,0.0109,0.0109,0.0105,0.01,0.0091,0.0047,0.0045,0.0053,0.0071,0.0043,0.0039,-0.0092,-0.0102,-0.0089,-0.0128,-0.0136,-0.018,-0.0183,-0.0184,-0.0186,0,0,0,0,0,0,0,0.0104,0.0108,0.0149,0.0109,0.0103,0.0081,0.008,0.0047,0.0009,0.0069,0.0062,0.0059,-0.0096,-0.0084,-0.0095,-0.0139,-0.018,-0.0184,-0.0186,-0.0188,-0.0239,-0.0238,0,0,0,0,0,0,0.0105,0.0108,0.0149,0.0149,0.0091,0.0085,0.0083,0.01,0.0013,-0.0002,0.0062,0.0054,-0.0074,-0.0089,-0.0103,-0.0114,-0.0184,-0.0189,-0.0191,-0.0241,-0.0239,-0.0237,0,0,0,0,0,0,0.0105,0.011,0.015,0.0124,0.0127,0.009,0.0109,0.0101,0.007,0.001,-0.0011,0.0032,-0.0078,-0.0096,-0.014,-0.0122,-0.0191,-0.0195,-0.0242,-0.024,-0.0238,-0.0099,0,0,0,0,0,0,0.0104,0.0111,0.011,0.0126,0.0129,0.0164,0.0113,0.0104,0.0075,0.0064,-0.0021,-0.0041,-0.0082,-0.0132,-0.0144,-0.0129,-0.0198,-0.0244,-0.0241,-0.0239,-0.0105,-0.0092,-0.0081,0,0,0,0,0,0.0102,0.0116,0.0111,0.0114,0.0134,0.0165,0.0165,0.0126,0.0077,0.008,0.0026,-0.0041,-0.0125,-0.0134,-0.0149,-0.0135,-0.0245,-0.0242,-0.0239,-0.0111,-0.0095,-0.0082,0,0,0,0,0,0,0.0072,0.0109,0.0102,0.0121,0.0136,0.0147,0.0135,0.0117,0.0083,0.0045,-0.0017,-0.0037,-0.0063,-0.0117,-0.0126,-0.0142,-0.0199,-0.0198,-0.0096,-0.0082,-0.007,-0.0068,-0.0202,0,0,0,0,0,0.0076,0.01,0.0127,0.0137,0.0142,0.0136,0.0133,0.0114,0.0093,0.0072,0.0022,-0.0033,-0.0048,-0.0085,-0.0112,-0.0124,-0.0159,-0.0127,-0.0115,-0.0105,-0.0112,-0.0123,-0.0112,-0.0227,-0.0227,-0.0227,0,0,0.0057,0.0086,0.0091,0.0134,0.0133,0.0154,0.0124,0.0117,0.0128,0.0055,0.0031,0.0006,-0.0039,-0.0038,-0.0058,-0.0094,-0.0085,-0.0101,-0.0091,-0.0105,-0.0118,-0.0107,-0.0097,-0.0225,-0.0225,-0.0226,0,0,0.0053,0.0068,0.0087,0.0111,0.0124,0.0138,0.0131,0.0136,0.0126,0.0126,0.0086,0.0078,0.0023,0.0025,0.0012,0.007,-0.0011,0.0041,0.0091,0.0082,0.0092,0.0099,0.0097,0.0103,0.0035,0.0036,0.0036,0,0.002,0.0069,0.0093,0.0122,0.014,0.0129,0.0152,0.0161,0.015,0.0157,0.0116,0.0105,0.0066,0.0099,0.0121,0.0098,0.0069,0.0045,0.0099,0.0106,0.0111,0.0106,0.0112,0.0043,0.0042,0.0041,0.0041,0,0.0042,0.0072,0.0083,0.013,0.0155,0.0171,0.0199,0.0202,0.0185,0.0202,0.0221,0.0207,0.019,0.0197,0.0172,0.0204,0.0165,0.0129,0.0067,0.0132,0.0122,0.0125,0.0053,0.005,0.0048,0.0047,0,0,-0.0019,0.0082,0.0077,0.0129,0.0163,0.0204,0.0217,0.0265,0.0277,0.0282,0.0319,0.0331,0.0312,0.0298,0.0281,0.0283,0.032,0.0216,0.0212,0.0222,0.0295,0.0294,0.0296,0.0281,0.0282,0.0282,0.0283,0,-0.0019,0.0055,0.0107,0.0178,0.0218,0.0247,0.0273,0.0307,0.0322,0.0354,0.0372,0.0384,0.0354,0.0344,0.0353,0.033,0.0327,0.0322,0.0222,0.0219,0.0217,0.03,0.0231,0.0227,0.0285,0.0286,0.0286,0,-0.0019,0.0038,0.0088,0.0233,0.0251,0.0292,0.0352,0.0375,0.041,0.0411,0.0432,0.0433,0.0466,0.0412,0.041,0.0399,0.0345,0.0327,0.0326,0.027,0.0223,0.0164,0.0229,0.029,0.029,0.0289,0.0289,0,-0.0061,0.0055,0.0102,0.0134,0.0242,0.0285,0.0347,0.0378,0.0406,0.0432,0.0449,0.0482,0.0492,0.0453,0.0423,0.0396,0.0415,0.0368,0.0324,0.0323,0.0217,0.0206,0.034,0.034,0.034,0.034,0.034,0,-0.0045,0.0018,0.009,0.0119,0.0204,0.0272,0.0349,0.0384,0.0419,0.0469,0.0464,0.0525,0.0493,0.0511,0.0453,0.0421,0.0429,0.035,0.0329,0.0267,0.0261,0.0262,0.0253,0.034,0.034,0.034,0.034,0,-0.0058,-0.0024,0.0031,0.0122,0.0182,0.0219,0.0382,0.0425,0.0428,0.0488,0.0491,0.0554,0.0579,0.0557,0.0523,0.0463,0.0425,0.0393,0.0336,0.0309,0.0327,0.0325,0.0348,0.0348,0.0348,0.0348,0.0348,0,-0.0018,-0.003,0.0004,0.0047,0.0112,0.0215,0.0291,0.0385,0.0442,0.053,0.0572,0.0619,0.0688,0.0666,0.0548,0.0454,0.0456,0.0328,0.0269,0.0353,0.033,0.0328,0.0326,0.0188,0.0187,0.0186,0.0185,0,0.0015,-0.006,-0.0038,0.002,0.0108,0.0233,0.0379,0.0442,0.0525,0.0597,0.0718,0.0779,0.0733,0.0652,0.0511,0.0437,0.0343,0.0305,0.0407,0.0206,0.0205,0.0182,0.0185,0.0176,0.0177,0.0178,0.0178,0.0179,-0.0007,-0.0018,-0.005,0.0044,0.012,0.0258,0.0385,0.0535,0.0661,0.0778,0.0824,0.0882,0.0731,0.0554,0.0425,0.0274,0.0293,0.0212,0.0214,0.0217,0.0207,0.0208,0.0178,0.0178,0.0179,0.018,0.018,0,-0.0015,0.0007,0.0051,0.0123,0.0201,0.0256,0.0447,0.0568,0.0754,0.0827,0.0919,0.077,0.066,0.0518,0.0249,0.0113,0.0083,0.0098,0.0061,0.0069,0.0077,0.006,-0.0009,-0.0009,-0.0009,-0.001,0,0,0.0012,0.003,0.0064,0.0198,0.0252,0.0399,0.0504,0.0663,0.0769,0.089,0.0894,0.087,0.0676,0.0448,0.0251,0.0119,0.0135,0.01,0.0254,0.0238,0.0248,0.0133,0.0116,0,0,0,0,0]}],[{"header":{"parameterUnit":"m.s-1","parameterCategory":2,"la1":30.2991,"la2":30.254,"lo1":-89.0895,"lo2":-89.0444,"dy":0.0017,"dx":0.0017,"nx":28,"ny":28,"refTime":"2024-11-25T03:00:00:Z","depth":"4","parameterNumber":2,"parameterNumberName":"U-component_of_CURRENTS"},"data":[0,0,0,0,0,0,0,0,0,0,0,0,0,0,0,0,0,0,0,0,0,0,0,0,0,0,0,0,0,0,0,0,0,0,0,0,0,0,0,0,0,0,0,0,0,0,0,0,0,0,0,0,0,0,0,0,0,0,-0.0386,-0.0386,0,-0.0401,-0.0401,-0.0401,-0.0409,-0.0409,-0.0409,-0.0409,-0.0437,-0.0437,-0.0438,0,0,0,0,0,0,0,0,0,0,0,0,0,-0.0378,-0.0378,-0.0386,-0.0386,-0.0386,-0.0401,-0.0401,-0.0401,-0.0409,-0.0409,-0.0409,-0.0409,-0.0436,-0.0437,-0.0438,0,0,0,0,0,0,0,0,0,0,0,0,0,-0.0385,-0.0378,-0.0386,-0.0392,-0.0393,-0.0401,-0.0401,-0.0401,-0.0409,-0.0409,-0.0409,-0.0409,-0.0436,-0.0437,-0.0438,-0.0442,0,0,-0.0441,-0.0442,0,0,0,0,0,0,0,0,-0.0385,-0.0386,-0.0391,-0.0392,-0.0393,-0.0404,-0.0409,-0.0416,-0.0409,-0.0402,-0.0409,-0.0409,-0.0427,-0.0429,-0.043,-0.0443,-0.0444,-0.0441,-0.0442,-0.0442,-0.0443,0,0,0,0,0,0,0,-0.0384,-0.0385,-0.0391,-0.0392,-0.0393,-0.04,-0.0401,-0.041,-0.0413,-0.0402,-0.0403,-0.0406,-0.0428,-0.0429,-0.0431,-0.0445,-0.0441,-0.0442,-0.0443,-0.0443,-0.0533,-0.0535,0,0,0,0,0,0,-0.0383,-0.0384,-0.039,-0.0392,-0.039,-0.04,-0.0401,-0.04,-0.0413,-0.0415,-0.0406,-0.0407,-0.0427,-0.043,-0.0432,-0.0473,-0.0442,-0.0443,-0.0444,-0.0532,-0.0534,-0.0536,0,0,0,0,0,0,-0.0383,-0.0384,-0.039,-0.0389,-0.0391,-0.04,-0.0398,-0.04,-0.0408,-0.0416,-0.0418,-0.0414,-0.0428,-0.0431,-0.0464,-0.0472,-0.0444,-0.0445,-0.0529,-0.0532,-0.0535,-0.0531,0,0,0,0,0,0,-0.0383,-0.0383,-0.0387,-0.0389,-0.0391,-0.0399,-0.0398,-0.04,-0.041,-0.041,-0.0423,-0.0425,-0.0428,-0.0463,-0.0465,-0.0473,-0.0445,-0.0527,-0.0531,-0.0534,-0.0529,-0.0534,-0.0537,0,0,0,0,0,-0.0382,-0.0384,-0.0387,-0.0388,-0.0394,-0.0399,-0.0401,-0.0407,-0.041,-0.0414,-0.0438,-0.0425,-0.0486,-0.0465,-0.0468,-0.0476,-0.0526,-0.053,-0.0534,-0.0527,-0.0533,-0.0537,0,0,0,0,0,0,-0.0381,-0.0385,-0.0389,-0.0391,-0.0398,-0.0401,-0.0406,-0.0411,-0.0431,-0.044,-0.0444,-0.0449,-0.0485,-0.0489,-0.0466,-0.0518,-0.0505,-0.051,-0.05,-0.0505,-0.0509,-0.0476,-0.0446,0,0,0,0,0,-0.0383,-0.039,-0.0391,-0.0398,-0.0397,-0.0403,-0.0408,-0.0417,-0.0432,-0.044,-0.0452,-0.0476,-0.0502,-0.051,-0.0535,-0.0554,-0.056,-0.0567,-0.0571,-0.0574,-0.0553,-0.06,-0.0605,-0.0549,-0.0549,-0.0549,0,0,-0.0387,-0.039,-0.0395,-0.0399,-0.0402,-0.0409,-0.0406,-0.0419,-0.0435,-0.0441,-0.047,-0.0492,-0.0515,-0.0546,-0.0561,-0.0548,-0.0595,-0.0579,-0.0581,-0.0558,-0.0605,-0.061,-0.0614,-0.0552,-0.0551,-0.0551,0,0,-0.0392,-0.0396,-0.0399,-0.0407,-0.0419,-0.0423,-0.0428,-0.0439,-0.0451,-0.0473,-0.0499,-0.0536,-0.0548,-0.0584,-0.0597,-0.0642,-0.0622,-0.0642,-0.0622,-0.0669,-0.0673,-0.0677,-0.0688,-0.0693,-0.0635,-0.0635,-0.0635,0,-0.0394,-0.0399,-0.0403,-0.0409,-0.0411,-0.0429,-0.043,-0.0452,-0.048,-0.0491,-0.0482,-0.0545,-0.0568,-0.0621,-0.0625,-0.0649,-0.0647,-0.0595,-0.0671,-0.0675,-0.0678,-0.069,-0.0695,-0.0636,-0.0636,-0.0636,-0.0636,0,-0.0401,-0.0409,-0.0411,-0.0424,-0.0427,-0.0438,-0.0455,-0.0475,-0.048,-0.05,-0.0545,-0.0583,-0.0601,-0.0633,-0.0624,-0.0671,-0.0652,-0.0675,-0.0648,-0.0683,-0.0694,-0.0699,-0.0636,-0.0636,-0.0636,-0.0636,0,0,-0.0386,-0.041,-0.041,-0.0408,-0.0435,-0.0428,-0.0462,-0.0481,-0.0499,-0.0533,-0.0552,-0.0603,-0.0603,-0.062,-0.0645,-0.0682,-0.0708,-0.0661,-0.0664,-0.0653,-0.0768,-0.0591,-0.058,-0.0728,-0.0729,-0.073,-0.0762,0,-0.0385,-0.0395,-0.0405,-0.0409,-0.0408,-0.0427,-0.0442,-0.0472,-0.0499,-0.0533,-0.0587,-0.0608,-0.0607,-0.0598,-0.0641,-0.0702,-0.072,-0.0694,-0.0752,-0.0753,-0.0575,-0.058,-0.0733,-0.0766,-0.0767,-0.0768,-0.0769,0,-0.0375,-0.0387,-0.0386,-0.0384,-0.0379,-0.0367,-0.0378,-0.0394,-0.0462,-0.0482,-0.0523,-0.0564,-0.0619,-0.061,-0.0704,-0.0673,-0.0691,-0.0741,-0.0745,-0.0575,-0.0584,-0.0729,-0.0778,-0.0778,-0.0777,-0.0776,-0.0776,0,-0.0343,-0.0357,-0.035,-0.0357,-0.037,-0.0338,-0.0314,-0.0359,-0.0389,-0.0427,-0.0469,-0.0536,-0.0569,-0.0621,-0.0688,-0.068,-0.0796,-0.0816,-0.0683,-0.0671,-0.0823,-0.0819,-0.0862,-0.0862,-0.0862,-0.0861,-0.0861,0,-0.0322,-0.0316,-0.0319,-0.0314,-0.0281,-0.0271,-0.024,-0.0251,-0.0301,-0.0342,-0.0406,-0.0455,-0.0567,-0.0654,-0.0691,-0.0682,-0.0792,-0.0654,-0.0661,-0.0823,-0.0819,-0.0827,-0.0822,-0.0863,-0.0862,-0.0862,-0.0862,0,-0.0281,-0.03,-0.0303,-0.0292,-0.0262,-0.0222,-0.0174,-0.0187,-0.0217,-0.0279,-0.0285,-0.0412,-0.0438,-0.0562,-0.0662,-0.0668,-0.0701,-0.0674,-0.0817,-0.0837,-0.0541,-0.0537,-0.0503,-0.0497,-0.0492,-0.0488,-0.0484,0,-0.0269,-0.0255,-0.0269,-0.0261,-0.0233,-0.0165,-0.0134,-0.0129,-0.0163,-0.024,-0.029,-0.0331,-0.0388,-0.0411,-0.0507,-0.0545,-0.0543,-0.058,-0.0553,-0.049,-0.0502,-0.0506,-0.0509,-0.0476,-0.0474,-0.0473,-0.0472,0,-0.0235,-0.0244,-0.0265,-0.0245,-0.0204,-0.0172,-0.0112,-0.0133,-0.0151,-0.0216,-0.0219,-0.0221,-0.0251,-0.0284,-0.0316,-0.036,-0.0571,-0.0525,-0.0536,-0.0511,-0.0457,-0.0475,-0.0483,-0.0453,-0.0456,-0.0458,-0.0459,0,-0.0223,-0.0244,-0.0265,-0.0237,-0.0206,-0.0165,-0.0134,-0.0106,-0.0113,-0.0185,-0.0162,-0.0185,-0.0217,-0.0185,-0.023,-0.0225,-0.0202,-0.0234,-0.026,-0.0281,-0.019,-0.0088,0.0047,0,0,0,0,0,-0.0207,-0.0217,-0.0228,-0.0228,-0.0199,-0.0162,-0.0139,-0.0133,-0.0151,-0.0119,-0.0125,-0.0105,-0.0066,-0.0089,-0.0032,-0.0149,-0.0246,-0.0088,-0.0307,-0.0353,-0.0374,-0.0287,0,0,0,0,0,0,-0.0206,-0.0218,-0.0245,-0.0207,-0.0184,-0.0148,-0.0125,-0.0143,-0.0111,-0.0118,-0.0085,-0.0074,-0.0047,-0.0075,-0.0023,-0.0029,-0.0156,-0.0085,-0.0083,-0.0342,-0.0361,-0.0377,-0.0295,0,0,0,0,0]},{"header":{"parameterUnit":"m.s-1","parameterCategory":2,"la1":30.2991,"la2":30.254,"lo1":-89.0895,"lo2":-89.0444,"dy":0.0017,"dx":0.0017,"nx":28,"ny":28,"refTime":"2024-11-25T03:00:00:Z","depth":"4","parameterNumber":3,"parameterNumberName":"V-component_of_CURRENTS"},"data":[0,0,0,0,0,0,0,0,0,0,0,0,0,0,0,0,0,0,0,0,0,0,0,0,0,0,0,0,0,0,0,0,0,0,0,0,0,0,0,0,0,0,0,0,0,0,0,0,0,0,0,0,0,0,0,0,0,0,0.0355,0.0355,0,0.0337,0.0337,0.0337,0.0376,0.0377,0.0378,0.0378,0.0443,0.0444,0.0445,0,0,0,0,0,0,0,0,0,0,0,0,0,0.0392,0.0391,0.0355,0.0355,0.0354,0.0337,0.0337,0.0337,0.0375,0.0377,0.0378,0.0379,0.0443,0.0444,0.0445,0,0,0,0,0,0,0,0,0,0,0,0,0,0.0378,0.0391,0.0355,0.0369,0.037,0.0337,0.0337,0.0337,0.0375,0.0377,0.0378,0.038,0.0443,0.0444,0.0445,0.0423,0,0,0.0449,0.0449,0,0,0,0,0,0,0,0,0.0378,0.0377,0.0368,0.0368,0.0369,0.0358,0.0373,0.0369,0.0375,0.0376,0.0379,0.038,0.0419,0.0423,0.0419,0.0426,0.0429,0.0449,0.045,0.045,0.0451,0,0,0,0,0,0,0,0.0379,0.0377,0.0351,0.0367,0.0368,0.0365,0.0366,0.0372,0.0394,0.0376,0.0378,0.0371,0.0421,0.0417,0.0421,0.043,0.0449,0.045,0.0451,0.0451,0.0472,0.0472,0,0,0,0,0,0,0.0376,0.0378,0.0351,0.035,0.0374,0.0363,0.0364,0.0362,0.0392,0.0396,0.037,0.0373,0.0415,0.0419,0.0423,0.0414,0.045,0.0451,0.0452,0.0472,0.0472,0.0472,0,0,0,0,0,0,0.0377,0.0374,0.0352,0.0361,0.0358,0.0361,0.0359,0.0361,0.037,0.0385,0.0393,0.0378,0.0416,0.0422,0.0454,0.0416,0.0452,0.0453,0.0472,0.0472,0.0472,0.0385,0,0,0,0,0,0,0.0378,0.0374,0.0378,0.0361,0.0357,0.0335,0.0357,0.0359,0.0361,0.0365,0.0394,0.0401,0.0418,0.0453,0.0456,0.0419,0.0454,0.0472,0.0472,0.0472,0.0388,0.0382,0.0377,0,0,0,0,0,0.0379,0.0371,0.0378,0.0375,0.036,0.0334,0.0332,0.0341,0.036,0.0357,0.0394,0.0401,0.0452,0.0454,0.0457,0.042,0.0473,0.0472,0.0472,0.0391,0.0383,0.0377,0,0,0,0,0,0,0.0384,0.0373,0.0381,0.037,0.0356,0.034,0.0336,0.0341,0.0364,0.0392,0.0406,0.0415,0.0428,0.0445,0.0446,0.0429,0.0459,0.046,0.0397,0.039,0.0384,0.0369,0.0455,0,0,0,0,0,0.0385,0.0382,0.0366,0.0357,0.0352,0.0347,0.034,0.0356,0.0367,0.0379,0.0402,0.0427,0.0423,0.0428,0.0448,0.0437,0.0453,0.0416,0.041,0.0405,0.0397,0.0385,0.0377,0.047,0.047,0.047,0,0,0.0382,0.0377,0.0374,0.0358,0.0353,0.0346,0.0348,0.0352,0.0347,0.0383,0.0405,0.0419,0.0422,0.0416,0.0419,0.0426,0.0391,0.0404,0.0399,0.0394,0.0384,0.0374,0.0366,0.047,0.047,0.047,0,0,0.0364,0.0371,0.0361,0.0363,0.0364,0.0356,0.0358,0.0363,0.0365,0.038,0.0398,0.0395,0.0411,0.039,0.0377,0.0352,0.037,0.0357,0.0299,0.0287,0.0278,0.0271,0.0293,0.0289,0.0342,0.0341,0.0341,0,0.0364,0.0365,0.0351,0.0354,0.0354,0.036,0.0357,0.0349,0.0371,0.035,0.039,0.0372,0.0387,0.032,0.0314,0.0333,0.0348,0.0317,0.0276,0.0269,0.0263,0.0287,0.0283,0.0337,0.0338,0.0338,0.0339,0,0.0348,0.0363,0.0359,0.0364,0.0346,0.0363,0.0343,0.0336,0.0344,0.0332,0.0299,0.0315,0.0293,0.0283,0.0289,0.023,0.0264,0.0276,0.0285,0.0247,0.0277,0.0274,0.0331,0.0333,0.0334,0.0335,0,0,0.0335,0.0347,0.0358,0.0362,0.0375,0.0352,0.0323,0.0276,0.0233,0.0256,0.0193,0.0179,0.0185,0.0174,0.0171,0.015,0.0126,0.0189,0.019,0.0197,0.0125,0.0081,0.0075,0.0126,0.0125,0.0124,0.0167,0,0.0343,0.0356,0.0349,0.0352,0.0356,0.0337,0.0285,0.0244,0.0213,0.0163,0.0137,0.0113,0.014,0.013,0.0105,0.0121,0.0113,0.0115,0.0174,0.0176,0.0128,0.0067,0.012,0.0165,0.0165,0.0164,0.0164,0,0.035,0.036,0.0385,0.0337,0.0328,0.034,0.0249,0.0201,0.0111,0.0082,0.0039,0.0029,-0.0009,0.0037,0.0031,0.0033,0.0077,0.0096,0.0098,0.0082,0.0125,0.021,0.0159,0.016,0.016,0.016,0.0161,0,0.0362,0.0371,0.0396,0.041,0.0366,0.0359,0.0314,0.0213,0.0137,0.0064,0.0017,-0.0033,-0.0038,-0.0021,0.0024,0.0029,0.0036,0.0052,0.0056,0.0057,0.0124,0.0132,0.0059,0.0059,0.0059,0.0059,0.0059,0,0.0378,0.0393,0.0438,0.0465,0.0459,0.0398,0.0341,0.0274,0.0158,0.0052,0.0014,-0.0059,-0.0051,-0.0057,-0.0004,0.0011,0.0023,0.003,0.0045,0.0093,0.0096,0.0124,0.0131,0.0061,0.006,0.006,0.006,0,0.0387,0.0426,0.0464,0.0477,0.0492,0.0494,0.0402,0.0308,0.0218,0.0088,0.0067,-0.0057,-0.0086,-0.0069,-0.0042,-0.0026,0.0003,0.0023,0.0087,0.011,0.0044,0.0046,0.0,-0.0002,-0.0003,-0.0004,-0.0005,0,0.0389,0.0427,0.0516,0.057,0.0616,0.0603,0.0545,0.0397,0.0259,0.0077,-0.0015,-0.0069,-0.0135,-0.0101,-0.0102,-0.0033,-0.0014,0.0012,-0.0005,0.0008,0.0029,0.0033,0.0037,-0.0007,-0.0008,-0.0008,-0.0008,0,0.0391,0.0464,0.0502,0.0649,0.0682,0.0603,0.051,0.041,0.0172,0.0099,-0.0048,-0.0077,-0.0131,-0.013,-0.0074,-0.0027,-0.0018,-0.0002,0.0001,-0.0015,-0.0,0.0022,0.0027,-0.0013,-0.0012,-0.0012,-0.0012,0,0.0416,0.047,0.0586,0.0673,0.0737,0.0636,0.0542,0.0369,0.0223,-0.0013,-0.0045,-0.0088,-0.0132,-0.0129,-0.0088,-0.0054,-0.0057,-0.0028,-0.0024,-0.0019,-0.0056,-0.0043,-0.0076,0,0,0,0,0,0.0445,0.0494,0.0583,0.0646,0.0699,0.0721,0.0519,0.0366,0.0143,0.0056,-0.0002,-0.0045,-0.0054,-0.0086,-0.0054,-0.0134,-0.0062,-0.0103,-0.0026,-0.004,-0.0034,-0.0083,0,0,0,0,0,0,0.0458,0.0573,0.0577,0.0624,0.0683,0.0642,0.0545,0.0355,0.0249,0.0096,0.0098,0.0019,0.0016,0.0009,-0.0004,-0.0019,0.0034,-0.013,-0.013,-0.0043,-0.0038,-0.0033,-0.0082,0,0,0,0,0]}]]